Starlink 2476

operational
NORAD ID: 48134 Int'l Des: 2021-027 Owner: SPXS Country: US Constellation: starlink
LEOCIRCULARSTARLINK_TYPE

Über Starlink 2476

Beschreibung wird geladen...

Live-Position

3D-Globus wird geladen...

Nächste Überflüge

Höhenverlauf

Altitude vs Time

uPlot chart will show altitude changes over time

Zweizeiliger Elementsatz

1 48134U 21027AU 25306.45114338 .00007754 00000-0 53906-3 0 9996
2 48134 53.0542 22.8139 0001354 85.5696 274.5448 15.06388302253233
Epoch: 2. Nov. 2025 • Age: 20 hours

Aktueller Status

Höhe 552.8 km
Geschwindigkeit 7.59 km/s
Subsatellitenpunkt 52.97°N, 21.34°W
Startdatum 7. Apr. 2021
Alter 4.5 years
Typ internet

Technische Details

Klassifizierung Payload
Masse 260.00 kg
Trockenmasse 248.00 kg
Gesamtmasse 260.00 kg
Länge 0.20 m
Durchmesser 2.80 m
Spannweite 9.00 m
Form Box + pan
Hersteller SPXS
Bus-Typ Starlink
Phasenstatus In Orbit
Besitzer/Staat SPXS/US

Große Konstellationen

Loading constellations...